TimeMST,TemperatureF,Dew PointF,Humidity,Sea Level PressureIn,VisibilityMPH,Wind Direction,Wind SpeedMPH,Gust SpeedMPH,PrecipitationIn,Events,Conditions,WindDirDegrees,DateUTC
12:53 AM,35.1,14.0,42,30.19,10.0,West,9.2,-,N/A,,Clear,270,2012-12-04 07:53:00
1:53 AM,34.0,15.1,46,30.21,10.0,WNW,10.4,-,N/A,,Clear,300,2012-12-04 08:53:00
2:53 AM,34.0,16.0,48,30.22,10.0,NW,10.4,-,N/A,,Clear,310,2012-12-04 09:53:00
3:53 AM,30.9,16.0,54,30.25,10.0,WNW,8.1,-,N/A,,Clear,300,2012-12-04 10:53:00
4:53 AM,28.0,15.1,58,30.29,10.0,NW,5.8,-,N/A,,Clear,310,2012-12-04 11:53:00
5:53 AM,21.0,12.9,71,30.34,10.0,Calm,Calm,-,N/A,,Clear,0,2012-12-04 12:53:00
6:53 AM,24.1,14.0,65,30.35,10.0,SE,6.9,-,N/A,,Clear,130,2012-12-04 13:53:00
7:53 AM,23.0,15.1,72,30.35,10.0,East,4.6,-,N/A,,Clear,80,2012-12-04 14:53:00
8:53 AM,30.0,16.0,56,30.33,10.0,SE,3.5,-,N/A,,Clear,130,2012-12-04 15:53:00
9:53 AM,39.9,17.1,40,30.30,10.0,ESE,5.8,-,N/A,,Clear,110,2012-12-04 16:53:00
10:53 AM,46.0,17.1,31,30.24,10.0,SSE,5.8,-,N/A,,Clear,160,2012-12-04 17:53:00
11:53 AM,52.0,12.9,21,30.19,10.0,South,10.4,-,N/A,,Clear,180,2012-12-04 18:53:00
12:53 PM,55.9,5.0,13,30.13,10.0,SW,10.4,-,N/A,,Clear,220,2012-12-04 19:53:00
1:53 PM,55.9,3.0,12,30.11,10.0,SW,5.8,-,N/A,,Scattered Clouds,220,2012-12-04 20:53:00
2:53 PM,55.9,7.0,14,30.09,10.0,WSW,9.2,17.3,N/A,,Clear,250,2012-12-04 21:53:00
3:53 PM,54.0,18.0,24,30.09,10.0,WSW,16.1,23.0,N/A,,Clear,250,2012-12-04 22:53:00
4:53 PM,51.1,18.0,27,30.11,10.0,West,8.1,-,N/A,,Clear,270,2012-12-04 23:53:00
5:53 PM,50.0,19.9,31,30.14,10.0,West,8.1,-,N/A,,Clear,260,2012-12-05 00:53:00
6:53 PM,50.0,21.0,32,30.15,10.0,West,10.4,-,N/A,,Clear,280,2012-12-05 01:53:00
7:53 PM,48.0,23.0,37,30.15,10.0,West,5.8,-,N/A,,Clear,280,2012-12-05 02:53:00
8:53 PM,46.9,25.0,42,30.14,10.0,West,8.1,-,N/A,,Clear,270,2012-12-05 03:53:00
9:53 PM,46.9,26.1,44,30.11,10.0,West,5.8,-,N/A,,Clear,280,2012-12-05 04:53:00
10:53 PM,46.9,28.0,48,30.07,10.0,West,10.4,-,N/A,,Clear,280,2012-12-05 05:53:00
11:53 PM,48.0,28.9,48,30.05,10.0,Variable,4.6,-,N/A,,Clear,0,2012-12-05 06:53:00